Home > Weather > Ravensburg > Past weeks

Flag for Germany Past Weather in Ravensburg, Baden-Württemberg, Germany — Yesterday and Last 2 Weeks

Now
64 °F

Light rain. More clouds than sun.


Feels Like: 64 °F
Forecast: 58 / 79 °F
Wind: 2 mph from North

Location: Friedrichshafen Airport

Current Time: Jun 30, 2016 at 10:51:10 AM

Latest Report: Jun 30, 2016 at 9:50 AM


Visibility: N/A

Pressure: 30.04 "Hg

Humidity: 94%

Dew Point: 63 °F

Location of RavensburgLocation

Past Weather in Ravensburg — Graph

°F

Ravensburg Temperature Yesterday

Maximum temperature yesterday: 79 °F (at 4:20 PM)
Minimum temperature yesterday: 59 °F (at 3:50 AM)
Average temperature yesterday: 69 °F

High & Low Weather Summary for the Past Weeks

 TemperatureHumidityPressure
High91 °F (Jun 23, 6:20 PM)100% (Jun 16, 6:20 AM)30.27 "Hg (Jun 16, 6:20 AM)
Low48 °F (Jun 17, 6:20 AM)36% (Jun 28, 4:20 PM)29.56 "Hg (Jun 16, 6:20 AM)
Average64 °F78%30.05 "Hg
* Reported Jun 15 9:20 AM — Jun 30 9:20 AM, Ravensburg, Weather by CustomWeather, © 2016

Note: Actual official high and low records may vary slightly from our data, if they occured in-between our weather recording intervals... More about our weather records

Advertising

Ravensburg Weather History for the Previous 24 Hours

Scroll right to see more
 ConditionsComfort  
Time TempWeatherWind HumidityBarometerVisibility
9:20 AM
Thu, Jun 30
66 °FPartly sunny.1 mph88%30.04 "HgN/A
8:50 AM64 °FScattered clouds.3 mph88%30.04 "HgN/A
8:20 AM63 °FPartly sunny.3 mph94%30.01 "HgN/A
7:50 AM61 °FLight rain. Mostly cloudy.3 mph100%30.01 "Hg6 mi
7:20 AM61 °FLight rain. Overcast.3 mph100%30.01 "HgN/A
6:50 AM61 °FLight rain. Mostly cloudy.5 mph100%30.04 "HgN/A
6:20 AM61 °FLight rain. Overcast.5 mph94%30.01 "Hg4 mi
5:50 AM59 °FLight rain. Mostly cloudy.3 mph100%30.01 "Hg4 mi
5:20 AM59 °FCool.3 mph100%30.04 "Hg4 mi
4:50 AM59 °FRain. Fog.5 mph94%30.01 "Hg2 mi
4:20 AM59 °FLight rain. Mostly cloudy.6 mph94%30.01 "HgN/A
3:50 AM59 °FCool.3 mph94%30.01 "HgN/A
3:20 AM59 °FOvercast.3 mph94%29.98 "HgN/A
2:50 AM59 °FMostly cloudy.8 mph94%29.98 "HgN/A
2:20 AM61 °FCool.8 mph94%29.98 "Hg3 mi
1:50 AM64 °FPassing clouds.3 mph94%29.95 "HgN/A
1:20 AM63 °FMild.1 mph100%29.95 "HgN/A
12:50 AM64 °FMild.No wind94%29.95 "HgN/A
12:20 AM64 °FMild.3 mph94%29.95 "HgN/A
11:50 PM
Wed, Jun 29
66 °FMild.2 mph88%29.95 "HgN/A
11:20 PM64 °FMild.2 mph88%29.95 "HgN/A
10:50 PM66 °FClear.1 mph88%29.95 "Hg10 mi
10:20 PM68 °FMild.2 mph83%29.95 "HgN/A
9:50 PM70 °FSunny.No wind73%29.95 "Hg10 mi
9:20 PM72 °FSunny.1 mph73%29.92 "Hg10 mi
8:50 PM73 °FSunny.2 mph69%29.92 "Hg10 mi
8:20 PM75 °FSunny.2 mph69%29.92 "Hg10 mi
7:50 PM75 °FSunny.2 mph65%29.92 "Hg10 mi
7:20 PM77 °FSunny.5 mph61%29.92 "Hg10 mi
6:50 PM75 °FPassing clouds.5 mph65%29.92 "HgN/A
6:20 PM77 °FSunny.2 mph54%29.95 "Hg10 mi
5:50 PM77 °FScattered clouds.5 mph57%29.95 "HgN/A
5:20 PM79 °FPassing clouds.3 mph51%29.95 "HgN/A
4:50 PM77 °FSunny.3 mph57%29.95 "Hg10 mi
4:20 PM79 °FPassing clouds.3 mph51%29.98 "HgN/A
3:50 PM77 °FPassing clouds.6 mph57%29.98 "HgN/A
3:20 PM75 °FPassing clouds.3 mph61%29.98 "HgN/A
2:50 PM75 °FPassing clouds.7 mph61%29.98 "HgN/A
2:20 PM77 °FPassing clouds.7 mph57%30.01 "HgN/A
1:50 PM75 °FPassing clouds.6 mph57%30.01 "HgN/A
1:20 PM73 °FPassing clouds.8 mph61%30.01 "HgN/A
12:50 PM73 °FPassing clouds.7 mph61%30.04 "HgN/A
12:20 PM73 °FPassing clouds.3 mph65%30.04 "HgN/A
11:50 AM72 °FPassing clouds.6 mph69%30.04 "HgN/A
11:20 AM70 °FPartly sunny.5 mph69%30.04 "HgN/A
10:50 AM68 °FPartly sunny.2 mph73%30.04 "HgN/A
10:20 AM66 °FPartly sunny.1 mph83%30.04 "HgN/A
Weather by CustomWeather, © 2016

See weather overviewHow to use our weather pages